Location: Izdebno
(52.6670°N, 16.2170°E)
Time: 22:27:37
(UTC+02:00)

Vanguard 2 Rocket - Pass Details

Date: 28 February 2024
Orbit: 555 x 3307 km, 32.9° (Epoch: 21 April)

Event Time Altitude Azimuth Distance (km) Brightness Sun altitude
Rises 13:46:54 0° 218° (SW) 4,017 11.5 25.7°
Reaches altitude 10° 13:49:59 10° 203° (SSW) 3,411 11.7 25.5°
Maximum altitude 13:56:36 23° 156° (SSE) 3,244 10.4 25.0°
Drops below altitude 10° 14:06:04 10° 112° (ESE) 5,085 10.7 24.3°
Sets 14:12:06 0° 101° (ESE) 6,570 11.1 23.8°
